Regional Weather Roundup
Issued by NWS

Home | Current Version | Previous Version | Graphics & Text | Print | Product List | Glossary On
Versions: 1 2 3 4 5 6 7 8 9 10 11 12 13 14 15 16 17 18 19 20 21 22 23 24 25 26 27 28 29 30 31 32 33 34 35 36 37 38 39 40 41 42 43 44 45 46 47 48 49 50
000
ASUS43 KBIS 181010
RWRND

NORTH DAKOTA REGIONAL WEATHER ROUNDUP
NATIONAL WEATHER SERVICE BISMARCK ND
500 AM CDT FRI APR 18 2014

NOTE: "FAIR" INDICATES FEW OR NO CLOUDS BELOW 12,000 FEET WITH NO
SIGNIFICANT WEATHER AND/OR OBSTRUCTIONS TO VISIBILITY.


NDZ001>003-009>011-017-181100-
NORTHWEST NORTH DAKOTA

CITY           SKY/WX    TMP DP  RH WIND       PRES   REMARKS
WILLISTON      CLOUDY    38  26  62 SE10      29.91F
MINOT          CLEAR     30  21  69 E15       30.08F WCI  19
MINOT AFB      CLEAR     30  22  74 SE14      30.08F WCI  19
$$

NDZ018>021-031>035-040>046-181100-
SOUTHWEST NORTH DAKOTA

CITY           SKY/WX    TMP DP  RH WIND       PRES   REMARKS
BISMARCK       CLEAR     34  22  61 E13       30.07F
DICKINSON      MOCLDY    31  22  69 SE20      29.89F WCI  19
GARRISON         N/A     32  24  72 E13       30.04F
HETTINGER ARPT PTCLDY    31  23  72 E16       29.90F WCI  20
$$

NDZ004>008-012>016-024-026-027-054-181100-
NORTHEAST NORTH DAKOTA

CITY           SKY/WX    TMP DP  RH WIND       PRES   REMARKS
GRAND FORKS    CLOUDY    31  18  58 SE6       30.28S
GRND FRKS AFB  CLOUDY    30  21  69 SE3       30.28S
DEVILS LAKE    CLOUDY    32  16  51 SE14      30.20F
$$

NDZ022-023-025-028>030-036>039-047>053-181100-
SOUTHEAST NORTH DAKOTA

CITY           SKY/WX    TMP DP  RH WIND       PRES   REMARKS
FARGO          CLOUDY    34  23  64 S7        30.28R
JAMESTOWN      CLOUDY    32  20  61 E15       30.18F
$$




USA.gov is the U.S. government's official web portal to all federal, state and local government web resources and services.